This is the latest recevied weather packets stored in our database for station/object KN6ZYR. If no packets are shown the sender has not sent any weather packets the latest 10 day(s).
| Time | Temp. | Humidity | Pressure | Rain* | Wind** | Luminosity | Snow |
|---|---|---|---|---|---|---|---|
| 1777917161 | 17.78° C | 33% | 1013.2 hPa | 0 mm | - | 709 W/m² | - |
| 1777916859 | 17.78° C | 34% | 1013.3 hPa | 0 mm | - | 196 W/m² | - |
| 1777916557 | 17.78° C | 35% | 1013.2 hPa | 0 mm | - | 133 W/m² | - |
| 1777916253 | 17.78° C | 34% | 1013.3 hPa | 0 mm | - | 122 W/m² | - |
| 1777915950 | 18.33° C | 33% | 1013.1 hPa | 0 mm | - | 123 W/m² | - |
| 1777915647 | 18.33° C | 34% | 1013.1 hPa | 0 mm | - | 163 W/m² | - |
| 1777915343 | 20° C | 30% | 1013.1 hPa | 0 mm | - | 154 W/m² | - |
| 1777915040 | 18.33° C | 32% | 1013.3 hPa | 0 mm | - | 587 W/m² | - |
| 1777914737 | 18.89° C | 33% | 1013.3 hPa | 0 mm | - | 337 W/m² | - |
| 1777914433 | 18.89° C | 33% | 1013.4 hPa | 0 mm | - | 134 W/m² | - |
| 1777914131 | 18.89° C | 32% | 1013.1 hPa | 0 mm | - | 631 W/m² | - |
| 1777913827 | 18.89° C | 31% | 1013.2 hPa | 0 mm | - | 592 W/m² | - |
| 1777913523 | 18.89° C | 31% | 1013.4 hPa | 0 mm | - | 573 W/m² | - |
| 1777913220 | 18.89° C | 32% | 1013.3 hPa | 0 mm | - | 558 W/m² | - |
| 1777912916 | 17.78° C | 33% | 1013.4 hPa | 0 mm | - | 536 W/m² | - |
| 1777912613 | 17.78° C | 35% | 1013.3 hPa | 0 mm | - | 527 W/m² | - |
| 1777912309 | 17.78° C | 35% | 1013.6 hPa | 0 mm | - | 523 W/m² | - |
| 1777912005 | 17.22° C | 35% | 1013.6 hPa | 0 mm | - | 501 W/m² | - |
| 1777911701 | 17.78° C | 35% | 1013.6 hPa | 0 mm | - | 377 W/m² | - |
| 1777911398 | 17.78° C | 37% | 1013.8 hPa | 0 mm | - | 471 W/m² | - |
| 1777911096 | 16.67° C | 37% | 1013.9 hPa | 0 mm | - | 460 W/m² | - |
| 1777910793 | 16.67° C | 38% | 1013.8 hPa | 0 mm | - | 455 W/m² | - |
| 1777910489 | 16.67° C | 38% | 1013.9 hPa | 0 mm | - | 435 W/m² | - |
| 1777910186 | 16.67° C | 40% | 1013.9 hPa | 0 mm | - | 420 W/m² | - |
| 1777909883 | 15.56° C | 41% | 1013.8 hPa | 0 mm | - | 403 W/m² | - |
* Rain latest hour (hover to see other rain measurements)
** Current wind speed in m/s (hover to see current wind gust speed)